Radiation Dose at Monitoring Post of Fukushima Daini Nuclear Power Station
Date,Time,MP-1(microSv/h),MP-2(microSv/h),MP-3(microSv/h),MP-4(microSv/h),MP-5(microSv/h),MP-6(microSv/h),MP-7(microSv/h),Wind Direction,Wind Velocity(m/s),Rain
2022/04/24,00:00,0.154,0.142,0.222,0.216,0.220,0.122,0.078,north,1.9,No
2022/04/24,00:10,0.154,0.141,0.223,0.215,0.221,0.121,0.077,north-northwest,2.5,No
2022/04/24,00:20,0.154,0.141,0.223,0.216,0.220,0.121,0.077,north,2.0,No
2022/04/24,00:30,0.154,0.142,0.224,0.217,0.220,0.121,0.078,north,2.3,No
2022/04/24,00:40,0.154,0.142,0.222,0.216,0.220,0.121,0.078,north,2.1,No
2022/04/24,00:50,0.155,0.141,0.222,0.216,0.220,0.121,0.079,north,3.9,No
2022/04/24,01:00,0.154,0.141,0.222,0.215,0.221,0.122,0.077,north-northwest,3.0,No
2022/04/24,01:10,0.153,0.141,0.222,0.216,0.220,0.122,0.077,north-northwest,2.7,No
2022/04/24,01:20,0.154,0.142,0.223,0.216,0.221,0.122,0.078,north-northwest,3.6,No
2022/04/24,01:30,0.154,0.141,0.224,0.216,0.221,0.121,0.078,north-northwest,3.5,No
2022/04/24,01:40,0.154,0.141,0.223,0.216,0.220,0.122,0.078,north-northwest,3.7,No
2022/04/24,01:50,0.154,0.141,0.224,0.216,0.220,0.121,0.077,north-northwest,3.7,No
2022/04/24,02:00,0.154,0.141,0.223,0.216,0.221,0.121,0.077,north-northwest,4.3,No
2022/04/24,02:10,0.154,0.141,0.223,0.216,0.219,0.121,0.078,north-northwest,4.8,No
2022/04/24,02:20,0.154,0.142,0.223,0.216,0.220,0.122,0.077,north-northwest,5.3,No
2022/04/24,02:30,0.153,0.141,0.224,0.216,0.220,0.121,0.078,north-northwest,4.5,No
2022/04/24,02:40,0.154,0.141,0.221,0.215,0.220,0.122,0.076,north-northwest,5.1,No
2022/04/24,02:50,0.154,0.141,0.223,0.216,0.221,0.122,0.078,north-northwest,4.7,No
2022/04/24,03:00,0.154,0.141,0.224,0.215,0.220,0.121,0.077,north-northwest,5.0,No
2022/04/24,03:10,0.154,0.141,0.223,0.215,0.222,0.122,0.078,north-northwest,4.2,No
2022/04/24,03:20,0.154,0.142,0.223,0.217,0.220,0.121,0.077,north-northwest,4.4,No
2022/04/24,03:30,0.154,0.141,0.222,0.215,0.219,0.122,0.078,north-northwest,3.6,No
2022/04/24,03:40,0.154,0.141,0.223,0.216,0.222,0.121,0.078,north-northwest,3.7,No
2022/04/24,03:50,0.154,0.141,0.224,0.214,0.219,0.121,0.078,northwest,3.2,No
2022/04/24,04:00,0.154,0.141,0.224,0.216,0.223,0.121,0.077,northwest,3.0,No
2022/04/24,04:10,0.155,0.141,0.222,0.216,0.220,0.122,0.078,north-northwest,1.9,No
2022/04/24,04:20,0.153,0.142,0.223,0.215,0.220,0.122,0.078,north,1.0,No
2022/04/24,04:30,0.153,0.141,0.222,0.216,0.220,0.122,0.077,-,CALM,No
2022/04/24,04:40,0.154,0.140,0.223,0.217,0.219,0.122,0.077,-,CALM,No
2022/04/24,04:50,0.154,0.142,0.222,0.215,0.222,0.121,0.078,-,CALM,No
2022/04/24,05:00,0.155,0.141,0.222,0.216,0.218,0.122,0.077,-,CALM,No
2022/04/24,05:10,0.153,0.143,0.223,0.215,0.221,0.122,0.078,-,CALM,No
2022/04/24,05:20,0.154,0.142,0.223,0.215,0.219,0.122,0.078,-,CALM,No
2022/04/24,05:30,0.154,0.141,0.222,0.217,0.220,0.121,0.077,-,CALM,No
2022/04/24,05:40,0.154,0.142,0.223,0.215,0.221,0.121,0.077,south,0.6,No
2022/04/24,05:50,0.154,0.141,0.224,0.216,0.220,0.121,0.077,southwest,1.1,No
2022/04/24,06:00,0.154,0.141,0.223,0.217,0.221,0.123,0.077,south-southwest,1.0,No
2022/04/24,06:10,0.155,0.141,0.223,0.215,0.221,0.121,0.077,south-southwest,1.3,No
2022/04/24,06:20,0.154,0.140,0.222,0.217,0.221,0.122,0.079,south,1.6,No
2022/04/24,06:30,0.153,0.141,0.222,0.216,0.221,0.121,0.078,south-southwest,1.8,No
2022/04/24,06:40,0.154,0.141,0.222,0.215,0.221,0.122,0.077,south-southwest,2.1,No
2022/04/24,06:50,0.154,0.141,0.224,0.215,0.220,0.122,0.077,south-southwest,1.5,No
2022/04/24,07:00,0.153,0.142,0.223,0.215,0.219,0.120,0.078,south-southwest,0.6,No
2022/04/24,07:10,0.154,0.141,0.223,0.215,0.221,0.122,0.078,southeast,0.8,No
2022/04/24,07:20,0.154,0.140,0.223,0.215,0.220,0.121,0.077,east-southeast,0.6,No
2022/04/24,07:30,0.154,0.141,0.220,0.214,0.221,0.121,0.078,-,CALM,No
2022/04/24,07:40,0.154,0.142,0.223,0.216,0.219,0.121,0.078,south,0.9,No
2022/04/24,07:50,0.155,0.140,0.221,0.213,0.221,0.121,0.079,south-southwest,1.0,No
2022/04/24,08:00,0.154,0.142,0.221,0.215,0.219,0.122,0.077,south-southeast,1.0,No
2022/04/24,08:10,0.153,0.141,0.222,0.215,0.220,0.121,0.077,south,1.4,No
2022/04/24,08:20,0.153,0.141,0.221,0.215,0.219,0.123,0.078,southeast,1.2,No
2022/04/24,08:30,0.154,0.140,0.224,0.215,0.218,0.122,0.077,south,1.7,No
2022/04/24,08:40,0.153,0.142,0.221,0.217,0.221,0.120,0.078,south-southeast,1.6,No
2022/04/24,08:50,0.153,0.142,0.222,0.214,0.218,0.121,0.077,southeast,1.1,No
2022/04/24,09:00,0.154,0.141,0.224,0.215,0.219,0.120,0.077,south-southeast,2.5,No
2022/04/24,09:10,0.153,0.141,0.223,0.216,0.220,0.122,0.078,south-southeast,1.9,No
2022/04/24,09:20,0.156,0.140,0.220,0.214,0.218,0.121,0.078,south-southeast,2.8,No
2022/04/24,09:30,0.153,0.141,0.222,0.213,0.218,0.120,0.077,south-southeast,1.2,No
2022/04/24,09:40,0.154,0.140,0.222,0.215,0.221,0.121,0.078,southeast,1.1,No
2022/04/24,09:50,0.154,0.141,0.222,0.214,0.220,0.120,0.077,south-southeast,3.3,No
2022/04/24,10:00,0.154,0.141,0.223,0.216,0.219,0.122,0.077,south-southeast,2.8,No
2022/04/24,10:10,0.154,0.141,0.224,0.217,0.222,0.121,0.077,southeast,2.4,No
2022/04/24,10:20,0.153,0.141,0.221,0.215,0.219,0.120,0.077,southeast,3.3,No
2022/04/24,10:30,0.154,0.141,0.223,0.215,0.219,0.121,0.077,south-southeast,3.3,No
2022/04/24,10:40,0.154,0.141,0.224,0.217,0.221,0.121,0.077,south-southeast,3.2,No
2022/04/24,10:50,0.152,0.141,0.222,0.215,0.219,0.120,0.077,southeast,2.2,No
2022/04/24,11:00,0.155,0.140,0.222,0.215,0.218,0.122,0.078,east,1.9,No
2022/04/24,11:10,0.152,0.142,0.224,0.217,0.222,0.121,0.077,southeast,2.3,No
2022/04/24,11:20,0.155,0.142,0.222,0.215,0.219,0.121,0.077,south-southeast,4.2,No
2022/04/24,11:30,0.154,0.141,0.222,0.216,0.219,0.122,0.077,south-southeast,4.2,No
2022/04/24,11:40,0.154,0.142,0.225,0.218,0.221,0.122,0.077,south-southeast,4.0,No
2022/04/24,11:50,0.155,0.140,0.222,0.215,0.219,0.121,0.077,south-southeast,3.2,No
2022/04/24,12:00,0.153,0.141,0.224,0.216,0.219,0.122,0.078,south-southeast,3.9,No
2022/04/24,12:10,0.155,0.141,0.223,0.216,0.221,0.121,0.077,south-southeast,4.0,No
2022/04/24,12:20,0.153,0.141,0.221,0.215,0.219,0.120,0.078,south-southeast,4.6,No
2022/04/24,12:30,0.154,0.142,0.224,0.218,0.218,0.122,0.078,south-southeast,3.4,No
2022/04/24,12:40,0.154,0.140,0.224,0.217,0.222,0.121,0.077,south-southeast,4.2,No
2022/04/24,12:50,0.153,0.142,0.222,0.215,0.218,0.122,0.077,south-southeast,4.0,No
2022/04/24,13:00,0.154,0.142,0.223,0.217,0.220,0.121,0.078,south-southeast,4.1,No
2022/04/24,13:10,0.152,0.140,0.222,0.214,0.220,0.122,0.078,southeast,1.8,No
2022/04/24,13:20,0.154,0.141,0.224,0.217,0.218,0.122,0.078,southeast,1.9,No
2022/04/24,13:30,0.153,0.142,0.224,0.217,0.222,0.122,0.077,southeast,3.1,No
2022/04/24,13:40,0.154,0.142,0.224,0.215,0.221,0.122,0.078,southeast,2.8,No
2022/04/24,13:50,0.153,0.141,0.224,0.218,0.219,0.121,0.078,southeast,2.7,No
2022/04/24,14:00,0.156,0.142,0.223,0.216,0.222,0.121,0.077,southeast,3.0,No
2022/04/24,14:10,0.153,0.141,0.225,0.216,0.220,0.122,0.078,southeast,2.7,No
2022/04/24,14:20,0.154,0.142,0.224,0.218,0.220,0.121,0.078,southeast,2.7,No
2022/04/24,14:30,0.154,0.142,0.225,0.217,0.222,0.122,0.078,southeast,3.0,No
2022/04/24,14:40,0.155,0.142,0.222,0.217,0.220,0.121,0.077,southeast,2.6,No
2022/04/24,14:50,0.154,0.141,0.225,0.216,0.221,0.122,0.078,south-southeast,2.3,No
2022/04/24,15:00,0.155,0.142,0.223,0.218,0.220,0.121,0.078,southeast,1.7,Yes
2022/04/24,15:10,0.155,0.142,0.225,0.216,0.222,0.122,0.078,southeast,1.1,Yes
2022/04/24,15:20,0.154,0.141,0.222,0.217,0.220,0.123,0.078,south-southeast,1.3,No
2022/04/24,15:30,0.155,0.142,0.225,0.217,0.221,0.122,0.078,southeast,1.7,No
2022/04/24,15:40,0.154,0.141,0.223,0.217,0.220,0.121,0.077,southeast,0.9,Yes
2022/04/24,15:50,0.154,0.142,0.224,0.216,0.220,0.121,0.078,east-southeast,0.8,Yes
2022/04/24,16:00,0.154,0.142,0.222,0.217,0.222,0.122,0.078,-,CALM,No
2022/04/24,16:10,0.154,0.142,0.225,0.216,0.220,0.121,0.078,-,CALM,No
2022/04/24,16:20,0.155,0.141,0.222,0.216,0.221,0.123,0.077,-,CALM,No
2022/04/24,16:30,0.154,0.142,0.224,0.217,0.220,0.121,0.078,-,CALM,No
2022/04/24,16:40,0.153,0.141,0.224,0.216,0.222,0.122,0.077,-,CALM,No
2022/04/24,16:50,0.154,0.142,0.224,0.217,0.219,0.122,0.078,-,CALM,No
2022/04/24,17:00,0.155,0.141,0.223,0.217,0.222,0.122,0.078,-,CALM,Yes
2022/04/24,17:10,0.154,0.143,0.224,0.217,0.220,0.121,0.078,-,CALM,Yes
2022/04/24,17:20,0.154,0.142,0.224,0.217,0.223,0.122,0.077,-,CALM,Yes
2022/04/24,17:30,0.154,0.142,0.224,0.217,0.221,0.122,0.078,east-southeast,0.8,Yes
2022/04/24,17:40,0.156,0.142,0.224,0.217,0.221,0.122,0.077,southeast,1.1,Yes
2022/04/24,17:50,0.155,0.144,0.225,0.217,0.220,0.122,0.078,south,1.0,Yes
2022/04/24,18:00,0.155,0.143,0.224,0.217,0.222,0.122,0.078,south-southeast,0.9,Yes
2022/04/24,18:10,0.154,0.143,0.224,0.217,0.220,0.122,0.078,south-southeast,1.9,No
2022/04/24,18:20,0.155,0.143,0.226,0.217,0.222,0.122,0.079,south-southeast,3.0,No
2022/04/24,18:30,0.155,0.142,0.224,0.217,0.220,0.122,0.078,south-southeast,5.0,No
2022/04/24,18:40,0.155,0.143,0.225,0.218,0.222,0.122,0.078,south-southeast,5.4,No
2022/04/24,18:50,0.154,0.142,0.225,0.216,0.221,0.122,0.079,south-southeast,5.6,No
2022/04/24,19:00,0.155,0.142,0.225,0.218,0.222,0.123,0.078,south-southeast,5.8,Yes
2022/04/24,19:10,0.154,0.142,0.223,0.216,0.220,0.121,0.078,south-southeast,6.7,Yes
2022/04/24,19:20,0.155,0.143,0.226,0.217,0.222,0.122,0.078,south-southeast,6.8,Yes
2022/04/24,19:30,0.153,0.142,0.223,0.217,0.220,0.122,0.078,south-southeast,6.8,Yes
2022/04/24,19:40,0.155,0.142,0.224,0.219,0.222,0.123,0.079,south,5.8,Yes
2022/04/24,19:50,0.154,0.142,0.225,0.217,0.221,0.121,0.079,south,6.8,Yes
2022/04/24,20:00,0.154,0.141,0.225,0.217,0.222,0.122,0.078,south,5.9,No
2022/04/24,20:10,0.154,0.143,0.224,0.216,0.222,0.122,0.078,south,6.2,No
2022/04/24,20:20,0.155,0.141,0.224,0.217,0.223,0.123,0.078,south,6.0,No
2022/04/24,20:30,0.154,0.144,0.225,0.216,0.221,0.122,0.078,south,6.2,No
2022/04/24,20:40,0.154,0.143,0.223,0.217,0.222,0.122,0.079,south,5.6,No
2022/04/24,20:50,0.153,0.142,0.224,0.216,0.220,0.122,0.078,south,5.6,No
2022/04/24,21:00,0.155,0.142,0.224,0.217,0.221,0.122,0.078,south,5.2,No
2022/04/24,21:10,0.154,0.142,0.224,0.218,0.220,0.121,0.078,south,5.3,No
2022/04/24,21:20,0.155,0.143,0.224,0.216,0.222,0.122,0.079,south,5.6,No
2022/04/24,21:30,0.154,0.142,0.225,0.218,0.220,0.122,0.078,south-southeast,4.6,No
2022/04/24,21:40,0.154,0.143,0.224,0.217,0.222,0.122,0.079,south,4.1,No
2022/04/24,21:50,0.155,0.143,0.223,0.217,0.221,0.122,0.078,south,3.2,No
2022/04/24,22:00,0.154,0.143,0.224,0.217,0.223,0.122,0.078,south,2.7,No
2022/04/24,22:10,0.155,0.143,0.225,0.219,0.221,0.122,0.079,south,2.0,No
2022/04/24,22:20,0.154,0.142,0.225,0.217,0.221,0.122,0.078,south,2.2,No
2022/04/24,22:30,0.155,0.142,0.223,0.216,0.221,0.123,0.079,south,2.1,No
2022/04/24,22:40,0.154,0.142,0.224,0.218,0.222,0.123,0.078,south,1.5,No
2022/04/24,22:50,0.155,0.142,0.226,0.218,0.222,0.123,0.079,west-southwest,0.7,No
2022/04/24,23:00,0.153,0.143,0.225,0.218,0.222,0.124,0.078,west-northwest,1.1,No
2022/04/24,23:10,0.156,0.143,0.225,0.216,0.223,0.123,0.079,north-northwest,1.3,No
2022/04/24,23:20,0.155,0.143,0.226,0.220,0.222,0.123,0.079,north-northwest,2.8,No
2022/04/24,23:30,0.156,0.144,0.225,0.218,0.223,0.123,0.080,north-northwest,3.7,No
2022/04/24,23:40,0.155,0.144,0.226,0.218,0.222,0.124,0.080,north-northwest,4.2,No
2022/04/24,23:50,0.156,0.143,0.225,0.219,0.223,0.123,0.079,north-northwest,5.1,No
